Showing default

STARONE C3, 38991

Orbit data source: Space-Track

STARONE C3, 38991 is a payload satellite owned by Star One (BR) in GEO that was launched on Sat, 10 Nov 2012 UTC via an ARIANE 5ECA launch vehicle from the French Guiana (FRGUI). Payloads include a variety of satellites, spacecraft, and rockets equipped with specific instruments for various scientific and technological missions. These include communications satellites like Starlink; space stations such as the ISS; scientific satellites like the Hubble; Earth observation satellites from companies like Planet Labs, Umbra, and HawkEye 360; GPS; miniature CubeSats for education and research; and military/defense satellites.

Loading next visibility...
STARONE C3 details
Identifier
38991, 2012-062A
Orbit
GEO
Last TLE update8 hours ago
Origin
Flag of BRStar One (BR / BRAZ)
ManufacturerOSC
MissionOperational Commercial Communications
Bus & MotorSTAR-2.4E, IHI
Mass3,226 kg wet, ~1,530 kg dry
Launch date (UTC)
2012-11-10 (12 years ago)
Launch vehicle
ARIANE 5ECA
Launch site
French Guiana (FRGUI)
Object type
Payload
Rocket body
Debris
Shape & HBRBox + 2 Pan, 23 m
Radar Cross Section29.105 m², Large (>1 m²)

Expand to show TLE details & history

TLE from 8 hours ago
0 STARONE C3
1 38991U 12062A   25025.52396858 -.00000229  00000-0  00000-0 0  9995
2 38991   0.0137 325.4094 0001479 348.0997 285.1801  1.00271141 44764
Epoch: 2025-01-25T12:34Z
Definitive object data (Epoch: 2025-01-25T12:34:30.885Z)
Latitude-0.00857°
Longitude-75.01293°
Altitude35,784.612 km
Speed3.075 km/s
True Right ascension15h 54m 44s
True Declination0° 00' 31"
Sunlit
Object was in daylight at TLE epoch
Visualization TLE readout
Latitude-0.00627°
Longitude42.88195°
Altitude35,781.731 km
Speed3.075 km/s
Apparent Right ascension00h 01m 10s
Apparent Declination-6° 07' 16"
Sunlit
Object is in daylight
Visualization observer readout
Local Sidereal Time21:45:47
Azimuth137.846° SSE
Elevation34.401°
Doppler factor1
Orbital elements
Apogee altitude35,794.082 km
Perigee altitude35,781.61 km
Semi-major axis42,165.983 km
Eccentricity0.0001479
Inclination0.0137°
RAAN325.4094°
Arg. of periapsis348.0997°
True anomaly285.16374°
Mean anomaly285.1801°
Eccentric anomaly285.17192°
Mean motion0.25067 °/min
BSTARUnknown
Orbital period1436.16 mins
Loading historical data...
38991 neighbors
Authenticating...
Loading maneuver chart data...
Loading historical data...
Loading historical data...
Loading historical data...
Loading historical data...
Loading historical data...
Loading historical data...
Loading historical data...
Other satellites on launch #62 in the year 2012 (2012-11-10 UTC)

STARONE C3 Visibility forecast

Observer location: undefined°, undefined

Span
Click to sort rows by Start time (UTC) header in descending order
Start Az.
Max El. time (UTC)
Max El. Az.
Max El.
End time (UTC)
End Az.
1440 mins2025-01-25 20:24:41.756Z137.859° SSE2025-01-26 09:00:41.756Z137.881° SSE29.475°2025-01-26 20:24:41.756Z137.86° SSE
|